SCP
1 1 1 1 1 2 2 2 1 1 2 2 2 2 2 2 2 2 2 2 2 2 2 2 2 2 2 2 1 1 1 1 1 0 0 0 0 0 0 0 0 0 0
1 1 1 1 1 2 2 2 1 1 2 2 2 2 2 2 2 2 2 2 2 2 2 2 2 2 2 2 1 1 1 1 1 1 1 0 0 0 0 0 0 0 0
2 2 2 2 2 2 2 2 2 2 2 2 3 3 2 2 2 2 2 2 2 2 2 2 2 2 2 2 2 2 1 1 1 1 1 1 1 0 0 0 0 0 0
2 3 2 2 2 2 2 2 2 2 2 3 3 3 3 3 3 2 2 2 2 2 1 1 1 2 2 2 2 2 2 1 1 1 1 1 1 0 0 0 0 0 0
3 3 3 3 3 3 2 2 2 3 3 3 4 5 4 4 4 3 2 2 1 1 1 1 1 1 1 1 2 2 2 1 1 1 1 1 1 1 0 0 0 0 0
3 3 3 3 3 3 3 3 3 3 4 4 5 5 5 5 5 4 3 2 1 1 1 1 1 1 1 1 1 1 1 1 1 1 1 1 1 1 1 1 1 1 1
3 3 4 4 4 4 3 3 3 3 4 5 5 5 6 6 5 4 3 2 1 1 1 1 1 1 1 1 1 1 1 1 1 1 1 1 1 1 1 1 1 1 1
3 4 4 5 5 4 4 3 3 3 3 4 4 5 5 5 5 4 3 2 1 1 1 1 1 1 1 1 1 1 1 1 1 1 1 1 1 1 1 1 1 1 1
3 4 5 6 6 5 4 4 4 3 3 3 3 3 3 4 4 3 2 2 1 1 1 1 1 1 1 1 1 0 0 0 0 1 1 1 0 0 1 1 1 1 1
4 5 7 8 7 5 5 5 5 4 3 3 3 2 2 3 3 2 2 2 1 1 1 1 1 1 1 1 1 1 0 0 0 1 1 0 0 0 1 1 1 1 1
5 7 9 9 8 6 5 6 6 5 4 3 3 2 2 2 2 2 2 2 2 1 1 1 1 1 1 1 1 1 1 0 1 1 1 1 1 1 1 1 1 1 1
6 8 9 9 7 6 7 8 7 5 4 3 3 3 3 3 2 2 2 2 2 2 1 1 1 1 1 1 1 1 1 1 1 1 1 1 1 1 1 1 1 1 1
5 6 7 7 6 6 7 8 7 5 3 3 3 3 3 3 2 2 2 2 2 2 2 1 2 2 1 1 1 1 1 1 1 1 1 1 1 1 1 1 1 2 2
4 4 4 5 5 5 6 7 6 5 3 3 3 3 3 3 2 2 2 2 2 2 2 1 1 2 1 1 1 1 1 1 1 1 1 1 1 1 1 1 2 2 2
4 4 4 4 4 4 5 5 5 4 3 4 4 3 3 3 3 2 2 2 2 2 1 1 1 1 1 1 1 1 1 1 1 1 1 1 1 1 1 1 1 1 1
5 5 4 4 3 3 3 4 4 3 4 4 4 4 4 4 4 3 2 2 2 2 2 1 1 1 1 1 1 1 1 2 2 1 1 1 1 1 1 1 1 1 1
5 4 4 4 3 3 4 4 4 3 4 4 4 4 5 5 5 4 4 3 2 2 2 2 2 2 1 1 1 1 1 2 2 1 1 1 1 1 1 0 0 0 0
4 4 3 4 4 4 4 4 4 3 3 3 4 4 5 5 5 5 5 4 3 3 2 2 2 2 1 1 1 1 1 1 1 1 1 1 1 1 1 0 0 0 1
3 3 3 4 4 4 5 4 4 3 3 3 4 4 4 4 5 5 5 5 4 3 3 3 2 2 1 1 0 1 1 1 1 1 1 1 1 1 0 0 0 1 1
3 4 4 4 5 5 5 5 4 4 4 4 4 4 4 4 4 5 5 5 5 4 4 3 2 2 1 1 0 0 1 1 1 1 1 1 1 1 0 0 0 1 1
5 5 5 5 5 5 5 5 5 4 4 4 3 3 3 3 4 4 5 6 5 5 4 3 2 2 1 1 0 0 1 1 1 1 0 1 1 0 0 0 0 1 1
6 6 6 5 5 5 5 5 4 4 4 4 4 3 3 3 3 4 5 6 6 5 4 3 2 2 2 1 1 0 0 0 1 1 1 1 0 0 0 0 0 0 0
6 6 6 5 4 4 4 4 3 3 3 4 4 4 4 4 4 4 4 5 5 5 4 3 3 3 2 2 1 1 0 0 0 0 0 0 0 0 0 0 0 0 0
6 6 6 5 5 4 4 3 2 2 2 3 3 3 4 4 4 3 3 4 5 5 4 4 3 3 3 3 2 1 1 1 0 0 0 0 0 0 0 0 1 1 1
6 7 7 6 5 5 4 3 2 2 2 2 2 2 2 3 3 2 2 3 3 4 3 3 3 3 3 3 2 2 2 1 1 1 1 1 1 1 1 1 1 1 1
5 6 8 7 6 6 5 3 2 1 1 1 2 2 2 2 2 2 2 2 2 2 2 3 3 3 2 2 2 2 2 2 1 1 1 1 1 1 1 1 1 1 1
Wind_Speed
7 7 8 8 7 7 7 7 7 6 5 3 3 2 2 2 2 2 3 3 3 4 3 2 2 2 2 2 2 1 1 0 0 1 1 2 2 3 4 4 4 5 6
6 8 8 8 9 9 9 8 8 7 6 4 3 2 2 2 2 1 2 3 3 3 3 3 3 2 2 1 2 1 1 0 1 1 1 2 3 2 2 3 4 5 4
10 9 9 10 10 11 11 10 9 8 7 6 3 3 2 1 1 1 1 2 3 3 3 3 3 3 3 2 2 2 3 2 1 1 2 1 2 3 2 2 3 3 4
9 9 10 10 11 11 9 9 9 8 7 7 6 6 4 3 3 2 2 2 2 3 4 4 4 3 2 3 3 3 2 3 2 1 1 2 2 1 2 2 2 2 3
11 11 12 12 10 9 9 8 8 8 7 7 8 6 5 3 2 2 2 2 2 2 3 4 3 3 3 3 3 2 3 3 3 2 2 2 1 2 2 3 3 2 2
10 10 9 8 7 7 8 8 8 8 8 8 7 7 7 5 4 3 3 2 2 2 3 3 3 3 3 3 3 3 4 3 3 2 2 2 2 2 2 3 3 3 2
9 8 9 9 9 9 10 9 10 9 8 8 7 7 7 7 6 5 4 3 2 2 3 3 3 3 3 4 3 3 3 3 3 3 3 3 3 2 2 2 2 2 2
8 9 9 10 10 10 10 10 10 9 8 8 8 7 6 5 4 5 4 4 4 4 3 4 4 4 4 4 3 3 3 3 3 4 3 3 3 3 3 3 2 2 2
8 9 8 8 9 9 10 10 10 8 8 8 7 6 6 6 5 5 4 4 3 3 4 4 4 4 4 3 3 3 3 3 3 3 3 3 2 2 2 2 3 3 2
6 6 6 7 7 7 7 7 8 9 8 7 7 7 6 6 5 4 5 4 4 3 3 3 3 3 3 3 3 3 3 2 2 2 2 2 2 1 1 2 2 3 3
6 6 5 5 5 5 6 6 7 6 6 7 7 6 6 5 5 4 5 4 3 3 4 3 3 2 2 2 2 2 2 2 2 2 2 2 2 1 1 1 1 2 2
3 4 4 5 4 5 5 6 6 6 6 6 6 6 5 5 5 5 4 4 4 3 3 3 2 2 2 2 2 2 2 2 2 2 2 2 1 1 1 1 1 1 2
4 4 5 4 4 3 3 3 4 5 5 5 6 5 5 5 5 5 4 4 4 3 3 3 3 2 2 2 2 2 1 1 1 1 1 1 0 1 1 0 0 1 0
4 5 4 3 3 3 3 3 3 3 4 5 6 5 5 5 5 4 4 4 4 4 3 3 2 2 2 2 2 2 1 1 1 1 1 1 0 1 1 0 1 0 0
4 4 4 3 3 3 2 3 3 3 4 5 5 5 5 5 4 4 4 4 4 4 3 3 2 2 2 2 3 2 2 1 1 2 1 1 2 1 0 1 1 1 0
4 4 4 4 3 2 2 2 3 3 4 4 4 4 4 4 4 4 4 4 3 3 3 3 3 3 1 2 4 3 2 2 2 2 2 2 3 3 3 3 2 1 1
3 4 3 2 2 1 2 2 2 3 4 3 3 3 4 4 4 4 4 4 3 3 3 3 3 3 2 3 4 4 3 3 2 2 2 2 3 3 3 4 5 4 3
3 3 3 2 2 2 3 2 3 3 3 3 2 2 3 3 3 4 3 3 3 4 3 3 3 2 2 4 4 4 3 3 3 3 3 3 3 3 2 3 3 3 4
3 2 2 1 2 3 3 3 3 3 3 3 3 2 3 4 4 4 3 3 4 4 4 3 3 3 3 4 5 5 3 3 4 4 4 3 3 5 4 4 4 4 4
3 3 2 3 4 3 3 4 3 3 2 2 2 3 3 4 4 4 4 4 4 4 4 4 4 4 3 4 6 5 3 3 3 3 4 6 5 5 5 4 4 4 3
3 3 4 4 3 2 3 5 3 2 1 2 3 3 4 5 5 5 4 5 5 5 5 5 4 3 4 5 5 5 4 3 3 3 3 4 6 6 6 5 4 3 2
4 4 5 4 3 3 4 4 3 2 2 3 4 4 4 4 5 6 5 5 5 5 5 4 3 3 4 4 5 6 5 4 4 3 3 3 6 8 8 6 6 6 5
3 4 4 4 4 4 4 4 2 2 3 4 5 5 6 5 5 6 6 5 4 4 3 3 3 3 3 4 6 7 7 7 5 4 6 6 7 7 7 9 9 6 4
3 3 4 4 4 4 4 3 3 3 5 6 6 5 7 7 6 5 5 4 3 3 4 3 3 3 3 2 3 3 4 6 6 5 6 8 9 7 7 7 6 5 4
2 3 3 3 3 3 4 4 3 4 6 6 6 6 6 6 6 6 5 4 3 3 3 3 3 3 2 1 3 4 4 4 4 5 5 5 5 5 5 5 5 4 4
2 3 3 3 3 4 4 4 3 4 6 5 5 4 4 5 5 6 7 11 9 11 10 7 6 5 5 6 8 9 9 8 8 7 6 5 4 4 4 4 4 4 4
Wind_Direction
208 193 191 185 179 179 182 184 177 174 160 150 155 157 183 193 199 205 197 187 183 177 176 185 187 182 187 194 177 167 137 125 140 69 332 313 270 247 239 234 233 236 234
197 195 191 188 189 189 189 187 183 178 178 173 162 159 156 170 189 194 190 192 190 186 187 190 196 191 185 180 181 165 146 151 138 143 83 336 333 307 253 236 232 237 236
201 198 195 197 196 198 194 194 189 183 182 169 139 114 92 75 119 187 206 205 195 193 196 195 195 196 190 199 208 189 179 195 203 169 155 164 256 299 300 259 243 239 233
201 199 199 201 203 204 196 193 188 185 181 169 166 167 175 192 205 196 207 219 207 202 200 200 200 203 201 208 217 202 189 182 205 204 206 199 185 218 304 309 284 256 243
200 201 203 205 205 198 191 189 186 187 182 180 182 180 188 194 183 184 208 222 228 222 216 207 202 207 213 217 215 204 198 196 199 196 188 191 199 207 216 281 309 306 268
202 203 200 195 194 189 187 184 184 191 185 185 185 186 189 186 182 198 211 222 228 237 233 219 210 210 217 224 219 216 213 212 211 207 191 182 189 201 201 239 272 288 290
196 196 193 192 192 190 189 186 187 194 187 186 190 192 192 189 196 201 207 212 217 229 231 224 218 217 219 225 222 219 226 216 214 213 212 211 218 197 191 212 252 270 283
193 197 198 196 194 193 190 188 191 195 189 192 199 195 189 192 203 204 202 209 216 225 221 217 221 224 222 224 217 224 232 221 222 226 220 222 229 215 206 202 208 267 285
194 194 191 192 191 190 192 190 188 192 194 197 197 194 192 197 206 204 201 210 217 221 214 214 220 228 223 219 213 227 235 225 228 231 227 233 239 226 225 219 210 214 256
187 184 180 183 185 185 184 179 185 194 193 191 195 199 197 201 202 196 204 211 213 212 204 209 215 224 227 223 215 230 238 222 238 230 225 237 240 233 228 227 226 224 225
177 177 174 170 165 159 164 177 184 184 186 191 191 192 192 191 191 197 204 206 208 202 206 206 207 214 219 209 200 220 228 225 248 248 227 242 230 231 241 237 232 230 214
143 140 139 135 139 151 166 179 184 188 193 190 187 191 184 179 190 201 200 191 191 191 193 182 186 201 200 185 187 215 223 218 238 254 244 258 232 213 245 235 235 226 214
110 108 107 119 138 151 159 167 178 192 186 177 185 189 184 185 193 194 185 175 173 176 176 169 177 190 177 162 171 179 200 205 237 261 241 257 207 237 243 206 220 242 218
109 109 112 122 133 142 155 160 171 171 163 170 177 186 193 191 188 177 172 170 168 169 170 174 179 176 156 149 144 140 142 122 72 25 357 298 230 239 237 217 230 197 123
88 100 108 109 112 120 131 146 152 146 151 155 171 187 189 177 165 164 166 161 161 170 168 159 150 138 141 154 148 144 135 120 89 57 29 26 56 63 159 200 206 174 160
83 83 90 99 108 129 133 128 130 137 141 152 174 172 166 158 158 160 156 151 150 149 142 143 138 130 138 127 137 141 133 121 104 75 41 43 42 48 58 67 73 103 137
85 83 78 84 86 82 96 108 120 121 124 142 158 154 147 156 165 153 144 146 145 135 123 120 126 129 120 120 118 117 116 107 96 82 59 49 38 40 60 61 59 49 46
72 62 49 40 42 65 69 81 98 109 116 121 118 120 137 150 139 129 142 142 133 130 123 119 117 111 97 103 102 100 96 87 77 69 67 63 37 34 62 74 57 42 31
78 70 61 70 59 63 77 87 82 90 99 106 109 126 138 138 133 138 143 134 124 119 116 114 113 106 85 90 99 99 92 84 69 58 55 55 50 35 60 82 71 50 37
72 68 63 72 63 45 73 90 84 87 87 95 107 110 118 123 122 130 123 113 113 112 108 98 93 100 97 95 102 106 106 94 77 61 51 46 46 44 59 79 76 58 24
75 74 70 66 53 43 74 82 80 76 73 86 95 96 106 115 119 117 112 111 110 106 100 96 89 90 92 91 92 100 108 115 102 79 55 41 50 59 62 66 65 54 43
71 71 72 59 43 52 77 80 70 60 79 90 89 89 97 111 114 111 106 105 110 108 106 101 84 62 62 67 79 88 103 116 107 93 74 62 63 64 60 59 51 54 58
65 62 71 61 42 43 66 82 52 66 83 85 89 92 89 84 94 105 108 109 113 114 109 100 92 73 59 60 70 82 89 96 97 89 83 73 69 65 60 51 50 54 55
62 61 66 63 44 37 45 52 47 69 87 88 84 88 90 85 78 78 83 94 100 111 116 108 103 83 59 53 75 82 84 86 90 87 76 68 63 61 54 47 46 46 47
74 74 79 74 54 50 51 47 57 80 89 90 90 87 87 91 80 70 61 70 61 82 111 111 117 116 100 51 81 94 88 95 101 96 74 61 55 52 48 45 41 39 40
83 83 83 79 68 62 52 42 53 86 100 97 94 92 91 93 96 97 79 57 62 66 70 79 94 84 95 96 85 83 83 86 96 90 79 70 65 61 53 47 38 33 31